Weather History for Youngstown, OH

Change the Weather History Date:

Friday, March 8, 2013

  Actual Average Record
Temperature  
Mean Temperature 33 °F 34 °F  
Max Temperature 39 °F 43 °F 77 °F (2000)
Min Temperature 27 °F 25 °F -7 °F (1986)
Degree Days  
Heating Degree Days 32 31  
Month to date heating degree days 282 259  
Since 1 July heating degree days 4724 4907  
Cooling Degree Days 0 0  
Month to date cooling degree days 0 0  
Year to date cooling degree days 0 0  
Moisture  
Dew Point 25 °F    
Average Humidity 72    
Maximum Humidity 85    
Minimum Humidity 59    
Precipitation  
Precipitation T in 0.08 in 1.35 in (2009)
Month to date precipitation 0.16 0.68  
Year to date precipitation 4.46 5.38  
Snow  
Snow T in 0.40 in - ()
Month to date snowfall 3.9 3.5  
Since 1 July snowfall 64.3 52.3  
Snow Depth 0.00 in    
Sea Level Pressure  
Sea Level Pressure 30.40 in    
Wind  
Wind Speed 9 mph (NNW)    
Max Wind Speed 16 mph    
Max Gust Speed 20 mph    
Visibility 10 miles    
Events Snow    
T = Trace of Precipitation, MM = Missing Value Source: NWS Daily Summary

Daily Weather History Graph

Daily Weather History Graph

Search for Another Location

Airport:

Trip Planner

Search our weather history database for the weather conditions in past years. The results will help you decide how hot, cold, wet, or windy it might be!

Date:

Astronomy

Mar. 08, 2013 Rise Set
Actual Time 6:45 AM EST 6:21 PM EST
Civil Twilight 6:18 AM EST 6:49 PM EST
Nautical Twilight 5:46 AM EST 7:21 PM EST
Astronomical Twilight 5:13 AM EST 7:53 PM EST
Moon 4:30 AM EST (3/8) 3:13 PM EST (3/8)
Length of Visible Light 12h 31m
Length of Day
11h 36m
Waning Crescent, 12% of the Moon is Illuminated
Mar 8
Waning Crescent
Mar 11
New
Mar 19
First Quarter
Mar 27
Full
Apr 3
Last Quarter

Hourly Weather History & Observations

Time (EST) Temp. Windchill Dew Point Humidity Pressure Visibility Wind Dir Wind Speed Gust Speed Precip Events Conditions
12:51 AM 28.9 °F 18.6 °F 24.1 °F 82% 30.34 in 9.0 mi NNW 12.7 mph - 0.00 in Snow Light Snow
1:51 AM 28.9 °F 18.6 °F 23.0 °F 78% 30.35 in 9.0 mi North 12.7 mph - 0.00 in Snow Light Snow
2:51 AM 28.0 °F 17.0 °F 23.0 °F 81% 30.35 in 9.0 mi NW 13.8 mph - 0.00 in Snow Light Snow
3:51 AM 28.0 °F 18.6 °F 23.0 °F 81% 30.35 in 9.0 mi NW 10.4 mph - 0.00 in Snow Light Snow
4:51 AM 28.0 °F 18.1 °F 24.1 °F 85% 30.36 in 9.0 mi NW 11.5 mph - 0.00 in Snow Light Snow
5:40 AM 28.4 °F 19.1 °F 24.8 °F 86% 30.34 in 9.0 mi NW 10.4 mph - 0.00 in Snow Light Snow
5:51 AM 28.9 °F 20.4 °F 24.1 °F 82% 30.38 in 9.0 mi NW 9.2 mph - 0.00 in Snow Light Snow
6:51 AM 28.9 °F 19.8 °F 25.0 °F 85% 30.41 in 9.0 mi NNW 10.4 mph - N/A Snow Light Snow
7:51 AM 28.9 °F 19.8 °F 25.0 °F 85% 30.41 in 9.0 mi NNW 10.4 mph - 0.00 in Snow Light Snow
8:51 AM 30.0 °F 19.5 °F 26.1 °F 85% 30.43 in 9.0 mi NW 13.8 mph - 0.00 in Snow Light Snow
9:51 AM 30.9 °F 22.8 °F 26.1 °F 82% 30.44 in 9.0 mi NNW 9.2 mph - 0.00 in Snow Light Snow
10:51 AM 30.9 °F 22.8 °F 27.0 °F 85% 30.44 in 9.0 mi NW 9.2 mph - 0.00 in Snow Light Snow
11:51 AM 33.1 °F 25.5 °F 28.0 °F 82% 30.44 in 9.0 mi NW 9.2 mph - 0.00 in Snow Light Snow
12:25 PM 33.8 °F 27.0 °F 28.4 °F 81% 30.39 in 9.0 mi NNW 8.1 mph - 0.00 in Snow Light Snow
12:51 PM 34.0 °F 25.5 °F 28.0 °F 79% 30.42 in 9.0 mi NNW 11.5 mph - 0.00 in   Overcast
1:39 PM 35.6 °F 27.5 °F 26.6 °F 70% 30.37 in 10.0 mi NW 11.5 mph - N/A   Overcast
1:51 PM 35.1 °F 28.6 °F 27.0 °F 72% 30.41 in 9.0 mi NNW 8.1 mph - 0.00 in Snow Light Snow
2:51 PM 37.0 °F 29.3 °F 27.0 °F 67% 30.40 in 10.0 mi NNW 11.5 mph - 0.00 in   Overcast
3:51 PM 39.0 °F 34.0 °F 26.1 °F 60% 30.40 in 10.0 mi NNW 6.9 mph - N/A   Mostly Cloudy
4:51 PM 37.9 °F 30.0 °F 24.1 °F 57% 30.42 in 10.0 mi North 12.7 mph - N/A   Mostly Cloudy
5:51 PM 35.1 °F 27.9 °F 23.0 °F 61% 30.42 in 10.0 mi North 9.2 mph - N/A   Scattered Clouds
6:40 PM 33.8 °F 27.7 °F 24.8 °F 70% 30.39 in 10.0 mi North 6.9 mph - N/A   Mostly Cloudy
6:51 PM 34.0 °F 26.0 °F 24.1 °F 67% 30.43 in 10.0 mi North 10.4 mph - N/A   Mostly Cloudy
7:51 PM 33.1 °F 27.7 °F 24.1 °F 70% 30.44 in 10.0 mi North 5.8 mph - N/A   Mostly Cloudy
8:08 PM 30.2 °F 24.3 °F 23.0 °F 75% 30.39 in 10.0 mi NNE 5.8 mph - N/A   Scattered Clouds
8:51 PM 30.0 °F 24.1 °F 21.9 °F 72% 30.44 in 10.0 mi NNE 5.8 mph - N/A   Partly Cloudy
9:39 PM 32.0 °F 27.5 °F 24.8 °F 75% 30.39 in 10.0 mi NNE 4.6 mph - N/A   Mostly Cloudy
9:51 PM 32.0 °F 28.7 °F 24.1 °F 73% 30.43 in 10.0 mi NNE 3.5 mph - N/A   Mostly Cloudy
10:51 PM 32.0 °F 28.7 °F 24.1 °F 73% 30.43 in 10.0 mi NNE 3.5 mph - N/A   Mostly Cloudy
11:25 PM 28.4 °F 23.3 °F 23.0 °F 80% 30.40 in 10.0 mi NW 4.6 mph - N/A   Scattered Clouds
11:51 PM 27.0 °F 21.6 °F 23.0 °F 85% 30.45 in 10.0 mi WNW 4.6 mph - N/A   Partly Cloudy